COSMOS 1247 DEB, 12992

Orbit data source: Space-Track

COSMOS 1247 DEB, 12992 is space debris in HEO originally from a launch on Thu, 19 Feb 1981 UTC launched from the Plesetsk Missile And Space Complex (PKMTR). Debris objects in space refer to the collection of defunct objects orbiting the Earth. Examples of debris include non-operational satellites, rocket bodies, and fragments generated from explosions, collisions, or faulty payload assembly.

Loading next visibility...
Identifier
12992, 1981-016H
Orbit
HEO
Country
Flag of CISCIS
Related business
Manufacturer
Unknown
Mission
Spacecraft
Bus & Motor
Unknown
Mass
Unknown
Launch date (UTC)
1981-02-19 (45 years ago)
Launch vehicle
Unknown
Launch site
Plesetsk Missile And Space Complex (PKMTR)
Object type
Payload
Rocket body
Debris
Shape & HBR
Unknown shape, 0.2 m
Radar Cross Section
Medium (>0.1 m² and <1 m²)

Expand to show TLE details & history
Last TLE update: 8 months ago

TLE from 8 months ago
0 COSMOS 1247 DEB
1 12992U 81016H   25300.19352463 -.00000854  00000-0  00000-0 0  9990
2 12992  68.7531  25.5004 6218454 348.9441   2.1450  2.02527185227065
Epoch: 2025-10-27T04:38Z
TLE epoch observation values (Epoch: 2025-10-27T04:38:40.528Z)
Latitude
-0.00025°
Longitude
-79.97124°
Altitude
3,662.953 km
Speed
8.019 km/s
True Right ascension
01h 41m 59s
True Declination
0° 00' 01"
Sunlit
Object was in full shadow at epoch
Visualization orbit readout
Latitude
Unknown
Longitude
Unknown
Altitude
Unknown
Speed
Unknown
Apparent Right ascension
Unknown
Apparent Declination
Unknown
Sunlit
N/A
Visualization observer readout
Local Sidereal Time
23:07:58
Azimuth
Unknown
Elevation
Unknown
Doppler factor
Unknown
Orbital elements
Apogee altitude
36,418.077 km
Perigee altitude
3,600.363 km
Semi-major axis
26,387.357 km
Eccentricity
0.62185
Inclination
68.7531°
RAAN
25.5004°
Arg. of periapsis
348.9441°
True anomaly
11.6846°
Mean anomaly
2.145°
Eccentric anomaly
5.65718°
Mean motion
0.50635 °/min
Orbital period
710.97 mins
BSTAR
0
Loading maneuver chart data...
Computing Atmospheric mass density...
Loading historical data...
Loading historical data...
Loading historical data...
Loading historical data...
Loading historical data...
Loading historical data...
Loading historical data...

Documentation

Showing up to 5 results
|